Time,TemperatureF,DewpointF,PressureIn,WindDirection,WindDirectionDegrees,WindSpeedMPH,WindSpeedGustMPH,Humidity,HourlyPrecipIn,Conditions,Clouds,dailyrainin,SoftwareType,DateUTC
2013-05-21 00:02:00,48.0,46.0,-100.00,SSE,165,10.0,14.0,95,0.00,,,0.00,,2013-05-21 05:02:00,
2013-05-21 00:12:00,48.0,46.0,-100.00,SSE,150,9.0,14.0,95,0.00,,,0.00,,2013-05-21 05:12:00,
2013-05-21 00:22:00,48.0,46.0,-100.00,SSE,165,9.0,15.0,95,0.00,,,0.00,,2013-05-21 05:22:00,
2013-05-21 00:32:00,48.0,46.0,-100.00,SE,145,11.0,16.0,95,0.00,,,0.00,,2013-05-21 05:32:00,
2013-05-21 00:42:00,48.0,46.0,-100.00,SE,135,12.0,17.0,95,0.00,,,0.00,,2013-05-21 05:42:00,
2013-05-21 00:51:00,48.0,46.0,-100.00,SE,145,13.0,17.0,95,0.00,,,0.00,,2013-05-21 05:51:00,
2013-05-21 01:02:00,48.0,46.0,-100.00,SE,145,8.0,16.0,95,0.00,,,0.00,,2013-05-21 06:02:00,
2013-05-21 01:12:00,48.0,46.0,-100.00,SE,145,13.0,19.0,95,0.00,,,0.00,,2013-05-21 06:12:00,
2013-05-21 01:21:00,48.0,46.0,-100.00,SSE,160,9.0,21.0,95,0.00,,,0.00,,2013-05-21 06:21:00,
2013-05-21 01:32:00,48.0,46.0,-100.00,SE,130,7.0,20.0,95,0.00,,,0.00,,2013-05-21 06:32:00,
2013-05-21 01:42:00,48.0,46.0,-100.00,SSE,150,12.0,23.0,95,0.00,,,0.00,,2013-05-21 06:42:00,
2013-05-21 01:52:00,47.0,46.0,-100.00,SSE,155,12.0,21.0,95,0.00,,,0.00,,2013-05-21 06:52:00,
2013-05-21 02:01:00,47.0,46.0,-100.00,SSE,155,11.0,16.0,95,0.00,,,0.00,,2013-05-21 07:01:00,
2013-05-21 02:11:00,47.0,46.0,-100.00,SSE,150,14.0,19.0,95,0.00,,,0.00,,2013-05-21 07:11:00,
2013-05-21 02:22:00,47.0,46.0,-100.00,SSE,155,12.0,17.0,95,0.00,,,0.00,,2013-05-21 07:22:00,
2013-05-21 02:31:00,47.0,46.0,-100.00,SE,140,7.0,16.0,95,0.00,,,0.00,,2013-05-21 07:31:00,
2013-05-21 02:41:00,47.0,46.0,-100.00,SE,145,11.0,14.0,95,0.00,,,0.00,,2013-05-21 07:41:00,
2013-05-21 02:52:00,47.0,46.0,-100.00,SSE,150,12.0,18.0,95,0.00,,,0.00,,2013-05-21 07:52:00,
2013-05-21 03:02:00,47.0,46.0,-100.00,SE,140,12.0,17.0,94,0.00,,,0.00,,2013-05-21 08:02:00,
2013-05-21 03:11:00,47.0,46.0,-100.00,SE,125,9.0,17.0,94,0.00,,,0.00,,2013-05-21 08:11:00,
2013-05-21 03:21:00,47.0,46.0,-100.00,SE,140,9.0,16.0,94,0.00,,,0.00,,2013-05-21 08:21:00,
2013-05-21 03:31:00,47.0,46.0,-100.00,SE,135,11.0,17.0,94,0.00,,,0.00,,2013-05-21 08:31:00,
2013-05-21 03:41:00,47.0,45.0,-100.00,SE,125,7.0,17.0,94,0.00,,,0.00,,2013-05-21 08:41:00,
2013-05-21 03:52:00,47.0,45.0,-100.00,East,100,9.0,22.0,94,0.00,,,0.00,,2013-05-21 08:52:00,
2013-05-21 04:01:00,47.0,46.0,-100.00,SE,125,9.0,17.0,94,0.00,,,0.00,,2013-05-21 09:01:00,
2013-05-21 04:11:00,47.0,46.0,-100.00,SE,145,12.0,18.0,94,0.00,,,0.00,,2013-05-21 09:11:00,
2013-05-21 04:21:00,47.0,46.0,-100.00,SE,145,8.0,17.0,94,0.00,,,0.00,,2013-05-21 09:21:00,
2013-05-21 04:32:00,47.0,46.0,-100.00,SE,125,4.0,12.0,94,0.00,,,0.00,,2013-05-21 09:32:00,
2013-05-21 04:42:00,47.0,46.0,-100.00,SE,125,6.0,14.0,94,0.00,,,0.00,,2013-05-21 09:42:00,
2013-05-21 04:52:00,47.0,46.0,-100.00,SE,130,9.0,14.0,94,0.00,,,0.00,,2013-05-21 09:52:00,
2013-05-21 05:02:00,47.0,46.0,-100.00,ESE,120,9.0,17.0,94,0.00,,,0.00,,2013-05-21 10:02:00,
2013-05-21 05:12:00,47.0,46.0,-100.00,SE,135,7.0,16.0,94,0.00,,,0.00,,2013-05-21 10:12:00,
2013-05-21 05:22:00,47.0,46.0,-100.00,SE,140,6.0,17.0,94,0.00,,,0.00,,2013-05-21 10:22:00,
2013-05-21 05:32:00,47.0,46.0,-100.00,SE,145,7.0,15.0,94,0.00,,,0.00,,2013-05-21 10:32:00,
2013-05-21 05:42:00,47.0,46.0,-100.00,SSE,160,6.0,14.0,94,0.00,,,0.00,,2013-05-21 10:42:00,
2013-05-21 05:52:00,47.0,46.0,-100.00,SE,140,7.0,12.0,94,0.00,,,0.00,,2013-05-21 10:52:00,
2013-05-21 06:02:00,47.0,46.0,-100.00,SSE,155,7.0,12.0,94,0.00,,,0.00,,2013-05-21 11:02:00,
2013-05-21 06:12:00,47.0,46.0,-100.00,SE,135,6.0,10.0,94,0.00,,,0.00,,2013-05-21 11:12:00,
2013-05-21 06:21:00,47.0,46.0,-100.00,SSE,150,6.0,9.0,94,0.00,,,0.00,,2013-05-21 11:21:00,
2013-05-21 06:32:00,47.0,46.0,-100.00,SE,145,6.0,12.0,94,0.00,,,0.00,,2013-05-21 11:32:00,
2013-05-21 06:41:00,47.0,46.0,-100.00,SE,130,4.0,15.0,95,0.00,,,0.00,,2013-05-21 11:41:00,
2013-05-21 06:51:00,47.0,46.0,-100.00,ESE,115,6.0,11.0,95,0.00,,,0.00,,2013-05-21 11:51:00,
2013-05-21 07:01:00,47.0,46.0,-100.00,SE,145,6.0,10.0,95,0.00,,,0.00,,2013-05-21 12:01:00,
2013-05-21 07:11:00,47.0,46.0,-100.00,ESE,115,5.0,9.0,95,0.00,,,0.00,,2013-05-21 12:11:00,
2013-05-21 07:21:00,47.0,46.0,-100.00,SSE,150,4.0,7.0,95,0.00,,,0.00,,2013-05-21 12:21:00,
2013-05-21 07:32:00,47.0,46.0,-100.00,SE,140,4.0,7.0,95,0.00,,,0.00,,2013-05-21 12:32:00,
2013-05-21 07:42:00,48.0,46.0,-100.00,SSE,165,4.0,6.0,95,0.00,,,0.00,,2013-05-21 12:42:00,
2013-05-21 07:51:00,48.0,46.0,-100.00,SE,135,5.0,7.0,95,0.00,,,0.00,,2013-05-21 12:51:00,
2013-05-21 08:01:00,48.0,46.0,-100.00,SSE,165,4.0,6.0,95,0.00,,,0.00,,2013-05-21 13:01:00,
2013-05-21 08:12:00,48.0,46.0,-100.00,SSE,155,4.0,6.0,95,0.00,,,0.00,,2013-05-21 13:12:00,
2013-05-21 08:22:00,48.0,46.0,-100.00,SSE,155,2.0,6.0,95,0.00,,,0.00,,2013-05-21 13:22:00,
2013-05-21 08:32:00,48.0,46.0,-100.00,SE,140,2.0,4.0,96,0.00,,,0.00,,2013-05-21 13:32:00,
2013-05-21 08:41:00,48.0,46.0,-100.00,East,95,1.0,4.0,96,0.00,,,0.00,,2013-05-21 13:41:00,
2013-05-21 08:52:00,48.0,46.0,-100.00,SE,130,2.0,6.0,96,0.00,,,0.00,,2013-05-21 13:52:00,
2013-05-21 09:01:00,48.0,46.0,-100.00,East,100,2.0,4.0,96,0.00,,,0.00,,2013-05-21 14:01:00,
2013-05-21 09:11:00,48.0,46.0,-100.00,ESE,110,2.0,4.0,96,0.00,,,0.00,,2013-05-21 14:11:00,
2013-05-21 09:21:00,48.0,48.0,-100.00,East,100,3.0,7.0,96,0.00,,,0.00,,2013-05-21 14:21:00,
2013-05-21 09:32:00,48.0,48.0,-100.00,ESE,110,4.0,7.0,96,0.00,,,0.00,,2013-05-21 14:32:00,
2013-05-21 09:41:00,48.0,48.0,-100.00,East,95,6.0,9.0,96,0.00,,,0.00,,2013-05-21 14:41:00,
2013-05-21 09:51:00,48.0,46.0,-100.00,East,90,7.0,10.0,96,0.00,,,0.00,,2013-05-21 14:51:00,
2013-05-21 10:01:00,48.0,48.0,-100.00,East,95,4.0,7.0,96,0.00,,,0.00,,2013-05-21 15:01:00,
2013-05-21 10:11:00,49.0,48.0,-100.00,ESE,110,4.0,9.0,96,0.00,,,0.00,,2013-05-21 15:11:00,
2013-05-21 10:21:00,49.0,48.0,-100.00,SE,125,4.0,9.0,96,0.00,,,0.00,,2013-05-21 15:21:00,
2013-05-21 10:33:00,49.0,48.0,-100.00,ESE,110,6.0,9.0,96,0.00,,,0.00,,2013-05-21 15:33:00,
2013-05-21 10:42:00,49.0,48.0,-100.00,East,85,4.0,9.0,96,0.00,,,0.00,,2013-05-21 15:42:00,
2013-05-21 10:52:00,48.0,48.0,-100.00,ENE,65,4.0,8.0,96,0.00,,,0.00,,2013-05-21 15:52:00,
2013-05-21 11:03:00,48.0,46.0,-100.00,ENE,75,5.0,9.0,96,0.00,,,0.00,,2013-05-21 16:03:00,
2013-05-21 11:12:00,48.0,46.0,-100.00,ENE,70,4.0,7.0,96,0.00,,,0.00,,2013-05-21 16:12:00,
2013-05-21 11:23:00,48.0,46.0,-100.00,ENE,70,4.0,7.0,96,0.00,,,0.00,,2013-05-21 16:23:00,
2013-05-21 11:32:00,48.0,46.0,-100.00,East,80,7.0,10.0,96,0.00,,,0.00,,2013-05-21 16:32:00,
2013-05-21 11:42:00,48.0,48.0,-100.00,East,80,6.0,9.0,96,0.00,,,0.00,,2013-05-21 16:42:00,
2013-05-21 11:52:00,48.0,46.0,-100.00,East,85,7.0,9.0,96,0.00,,,0.00,,2013-05-21 16:52:00,
2013-05-21 12:02:00,48.0,48.0,-100.00,ENE,70,4.0,9.0,96,0.00,,,0.00,,2013-05-21 17:02:00,
2013-05-21 12:12:00,49.0,48.0,-100.00,East,85,4.0,9.0,96,0.00,,,0.00,,2013-05-21 17:12:00,
2013-05-21 12:23:00,49.0,48.0,-100.00,ENE,75,6.0,10.0,96,0.00,,,0.00,,2013-05-21 17:23:00,
2013-05-21 12:32:00,49.0,48.0,-100.00,East,85,4.0,10.0,96,0.00,,,0.00,,2013-05-21 17:32:00,
2013-05-21 12:43:00,49.0,48.0,-100.00,East,80,6.0,13.0,95,0.00,,,0.00,,2013-05-21 17:43:00,
2013-05-21 12:52:00,48.0,46.0,-100.00,ENE,60,5.0,12.0,95,0.00,,,0.00,,2013-05-21 17:52:00,
2013-05-21 13:01:00,49.0,46.0,-100.00,East,80,9.0,12.0,95,0.00,,,0.00,,2013-05-21 18:01:00,
2013-05-21 13:12:00,49.0,46.0,-100.00,East,100,6.0,13.0,94,0.00,,,0.00,,2013-05-21 18:12:00,
2013-05-21 13:22:00,49.0,46.0,-100.00,East,85,8.0,13.0,94,0.00,,,0.00,,2013-05-21 18:22:00,
2013-05-21 13:32:00,49.0,48.0,-100.00,ENE,70,6.0,12.0,94,0.00,,,0.00,,2013-05-21 18:32:00,
2013-05-21 13:42:00,49.0,48.0,-100.00,ENE,75,6.0,14.0,94,0.00,,,0.00,,2013-05-21 18:42:00,
2013-05-21 13:51:00,50.0,48.0,-100.00,ENE,65,4.0,14.0,94,0.00,,,0.00,,2013-05-21 18:51:00,
2013-05-21 14:01:00,49.0,48.0,-100.00,ESE,110,8.0,14.0,94,0.00,,,0.00,,2013-05-21 19:01:00,
2013-05-21 14:11:00,50.0,48.0,-100.00,East,85,7.0,14.0,94,0.00,,,0.00,,2013-05-21 19:11:00,
2013-05-21 14:21:00,50.0,48.0,-100.00,East,100,9.0,16.0,93,0.00,,,0.00,,2013-05-21 19:21:00,
2013-05-21 14:32:00,50.0,48.0,-100.00,ESE,110,8.0,16.0,91,0.00,,,0.00,,2013-05-21 19:32:00,
2013-05-21 14:42:00,50.0,48.0,-100.00,ENE,70,4.0,10.0,91,0.00,,,0.00,,2013-05-21 19:42:00,
2013-05-21 14:52:00,50.0,48.0,-100.00,ENE,70,7.0,12.0,92,0.00,,,0.00,,2013-05-21 19:52:00,
2013-05-21 15:03:00,49.0,46.0,-100.00,East,90,7.0,12.0,92,0.00,,,0.00,,2013-05-21 20:03:00,
2013-05-21 15:11:00,49.0,46.0,-100.00,East,85,6.0,12.0,92,0.00,,,0.00,,2013-05-21 20:11:00,
2013-05-21 15:22:00,50.0,48.0,-100.00,East,100,5.0,12.0,91,0.00,,,0.00,,2013-05-21 20:22:00,
2013-05-21 15:32:00,50.0,48.0,-100.00,East,85,7.0,12.0,92,0.00,,,0.00,,2013-05-21 20:32:00,
2013-05-21 15:42:00,49.0,48.0,-100.00,East,90,6.0,11.0,92,0.00,,,0.00,,2013-05-21 20:42:00,
2013-05-21 15:52:00,49.0,46.0,-100.00,ENE,60,6.0,11.0,92,0.00,,,0.00,,2013-05-21 20:52:00,
2013-05-21 16:02:00,49.0,46.0,-100.00,East,80,6.0,12.0,92,0.00,,,0.00,,2013-05-21 21:02:00,
2013-05-21 16:11:00,48.0,46.0,-100.00,ENE,65,6.0,11.0,92,0.00,,,0.00,,2013-05-21 21:11:00,
2013-05-21 16:21:00,48.0,46.0,-100.00,ENE,65,6.0,11.0,93,0.00,,,0.00,,2013-05-21 21:21:00,
2013-05-21 16:33:00,48.0,46.0,-100.00,ENE,75,6.0,12.0,93,0.00,,,0.00,,2013-05-21 21:33:00,
2013-05-21 16:43:00,48.0,46.0,-100.00,East,80,7.0,12.0,93,0.00,,,0.00,,2013-05-21 21:43:00,
2013-05-21 16:53:00,48.0,46.0,-100.00,East,100,6.0,10.0,92,0.00,,,0.00,,2013-05-21 21:53:00,
2013-05-21 17:02:00,48.0,46.0,-100.00,East,95,7.0,14.0,92,0.00,,,0.00,,2013-05-21 22:02:00,
2013-05-21 17:12:00,48.0,46.0,-100.00,East,80,6.0,11.0,93,0.00,,,0.00,,2013-05-21 22:12:00,
2013-05-21 17:22:00,47.0,46.0,-100.00,East,80,9.0,16.0,92,0.00,,,0.00,,2013-05-21 22:22:00,
2013-05-21 17:33:00,48.0,46.0,-100.00,East,85,7.0,16.0,92,0.00,,,0.00,,2013-05-21 22:33:00,
2013-05-21 17:42:00,48.0,45.0,-100.00,East,85,12.0,19.0,91,0.00,,,0.00,,2013-05-21 22:42:00,
2013-05-21 17:52:00,48.0,45.0,-100.00,East,85,11.0,18.0,90,0.00,,,0.00,,2013-05-21 22:52:00,
2013-05-21 18:02:00,48.0,45.0,-100.00,ESE,105,8.0,18.0,90,0.00,,,0.00,,2013-05-21 23:02:00,
2013-05-21 18:12:00,48.0,45.0,-100.00,ENE,75,10.0,16.0,89,0.00,,,0.00,,2013-05-21 23:12:00,
2013-05-21 18:22:00,48.0,45.0,-100.00,East,90,8.0,19.0,87,0.00,,,0.00,,2013-05-21 23:22:00,
2013-05-21 18:32:00,48.0,45.0,-100.00,ESE,105,10.0,14.0,87,0.00,,,0.00,,2013-05-21 23:32:00,
2013-05-21 18:42:00,49.0,45.0,-100.00,East,85,4.0,16.0,86,0.00,,,0.00,,2013-05-21 23:42:00,
2013-05-21 18:52:00,48.0,45.0,-100.00,East,95,9.0,16.0,86,0.00,,,0.00,,2013-05-21 23:52:00,
2013-05-21 19:01:00,48.0,45.0,-100.00,East,95,8.0,15.0,86,0.00,,,0.00,,2013-05-22 00:01:00,
2013-05-21 19:11:00,48.0,45.0,-100.00,East,85,11.0,17.0,86,0.00,,,0.00,,2013-05-22 00:11:00,
2013-05-21 19:21:00,47.0,43.0,-100.00,East,85,10.0,19.0,87,0.00,,,0.00,,2013-05-22 00:21:00,
2013-05-21 19:32:00,47.0,43.0,-100.00,ENE,75,9.0,17.0,87,0.00,,,0.00,,2013-05-22 00:32:00,
2013-05-21 19:41:00,47.0,43.0,-100.00,East,95,8.0,16.0,87,0.00,,,0.00,,2013-05-22 00:41:00,
2013-05-21 19:51:00,47.0,43.0,-100.00,East,100,7.0,14.0,86,0.00,,,0.00,,2013-05-22 00:51:00,
2013-05-21 20:01:00,47.0,43.0,-100.00,ENE,75,8.0,13.0,87,0.00,,,0.00,,2013-05-22 01:01:00,
2013-05-21 20:11:00,46.0,43.0,-100.00,East,100,9.0,14.0,88,0.00,,,0.00,,2013-05-22 01:11:00,
2013-05-21 20:21:00,46.0,43.0,-100.00,East,90,8.0,17.0,87,0.00,,,0.00,,2013-05-22 01:21:00,
2013-05-21 20:32:00,46.0,43.0,-100.00,ENE,70,5.0,15.0,87,0.00,,,0.00,,2013-05-22 01:32:00,
2013-05-21 20:41:00,46.0,43.0,-100.00,East,80,7.0,14.0,88,0.00,,,0.00,,2013-05-22 01:41:00,
2013-05-21 20:52:00,46.0,43.0,-100.00,East,85,9.0,16.0,88,0.00,,,0.00,,2013-05-22 01:52:00,
2013-05-21 21:01:00,46.0,43.0,-100.00,East,85,7.0,17.0,88,0.00,,,0.00,,2013-05-22 02:01:00,
2013-05-21 21:11:00,45.0,43.0,-100.00,East,85,7.0,17.0,88,0.00,,,0.00,,2013-05-22 02:11:00,
2013-05-21 21:21:00,45.0,43.0,-100.00,East,90,9.0,15.0,88,0.00,,,0.00,,2013-05-22 02:21:00,
2013-05-21 21:32:00,45.0,43.0,-100.00,East,80,4.0,14.0,88,0.00,,,0.00,,2013-05-22 02:32:00,
2013-05-21 21:41:00,45.0,43.0,-100.00,East,80,8.0,17.0,89,0.00,,,0.00,,2013-05-22 02:41:00,
2013-05-21 21:51:00,45.0,43.0,-100.00,East,80,7.0,12.0,89,0.00,,,0.00,,2013-05-22 02:51:00,
2013-05-21 22:01:00,45.0,43.0,-100.00,East,90,7.0,14.0,89,0.00,,,0.00,,2013-05-22 03:01:00,
2013-05-21 22:11:00,45.0,43.0,-100.00,ENE,70,6.0,12.0,90,0.00,,,0.00,,2013-05-22 03:11:00,
2013-05-21 22:21:00,45.0,43.0,-100.00,ENE,75,6.0,12.0,91,0.00,,,0.00,,2013-05-22 03:21:00,
2013-05-21 22:33:00,45.0,43.0,-100.00,East,80,7.0,13.0,91,0.00,,,0.00,,2013-05-22 03:33:00,
2013-05-21 22:43:00,45.0,43.0,-100.00,East,90,5.0,11.0,93,0.00,,,0.00,,2013-05-22 03:43:00,
2013-05-21 22:53:00,45.0,43.0,-100.00,East,80,7.0,14.0,93,0.00,,,0.00,,2013-05-22 03:53:00,
2013-05-21 23:03:00,44.0,43.0,-100.00,East,80,6.0,10.0,94,0.00,,,0.00,,2013-05-22 04:03:00,
2013-05-21 23:13:00,44.0,43.0,-100.00,ENE,70,6.0,10.0,94,0.00,,,0.00,,2013-05-22 04:13:00,
2013-05-21 23:22:00,44.0,43.0,-100.00,East,85,6.0,12.0,95,0.00,,,0.00,,2013-05-22 04:22:00,
2013-05-21 23:33:00,44.0,43.0,-100.00,East,80,6.0,13.0,95,0.00,,,0.00,,2013-05-22 04:33:00,
2013-05-21 23:43:00,44.0,43.0,-100.00,East,80,4.0,12.0,95,0.00,,,0.00,,2013-05-22 04:43:00,
2013-05-21 23:53:00,44.0,43.0,-100.00,East,80,6.0,13.0,95,0.00,,,0.00,,2013-05-22 04:53:00,